Weather History for KMPZ - April, 2013

Change the Weather History Date:

Thursday, April 4, 2013

  Actual Average Record
Temperature  
Mean Temperature 50 °F -  
Max Temperature 66 °F 55 °F 77 °F (2005)
Min Temperature 34 °F 34 °F 11 °F (1975)
Degree Days  
Heating Degree Days 15    
Moisture  
Dew Point 15 °F    
Average Humidity 31    
Maximum Humidity 58    
Minimum Humidity 7    
Precipitation  
Precipitation 0.00 in - - ()
Sea Level Pressure  
Sea Level Pressure 30.13 in    
Wind  
Wind Speed 4 mph (WSW)    
Max Wind Speed 12 mph    
Max Gust Speed 9 mph    
Visibility 10 miles    
Events      
Averages and records for this station are not official NWS values.
T = Trace of Precipitation, MM = Missing Value Source: NWS Daily Summary

Daily Weather History Graph

Daily Weather History Graph

Search for Another Location

Airport or City:

Trip Planner

Search our weather history database for the weather conditions in past years. The results will help you decide how hot, cold, wet, or windy it might be!

Date:

Astronomy

Apr. 04, 2013 Rise Set
Actual Time 6:44 AM CDT 7:34 PM CDT
Civil Twilight 6:16 AM CDT 8:02 PM CDT
Nautical Twilight 5:43 AM CDT 8:35 PM CDT
Astronomical Twilight 5:09 AM CDT 9:09 PM CDT
Moon 3:13 AM CDT (4/4) 1:50 PM CDT (4/4)
Length of Visible Light 13h 46m
Length of Day
12h 50m
Waning Crescent, 33% of the Moon is Illuminated
Apr 4
Waning Crescent
Apr 10
New
Apr 18
First Quarter
Apr 25
Full
May 2
Last Quarter

Hourly Weather History & Observations

Time (CDT) Temp. Windchill Dew Point Humidity Pressure Visibility Wind Dir Wind Speed Gust Speed Precip Events Conditions
12:15 AM 38.8 °F 34.6 °F 11.3 °F 32% 30.26 in 10.0 mi ESE 5.8 mph - N/A   Clear
12:35 AM 37.8 °F 35.3 °F 10.8 °F 33% 30.26 in 10.0 mi East 3.5 mph - N/A   Clear
12:55 AM 35.8 °F - 12.7 °F 39% 30.26 in 10.0 mi Calm Calm - N/A   Clear
1:15 AM 36.1 °F 33.5 °F 11.8 °F 37% 30.26 in 10.0 mi ESE 3.5 mph - N/A   Clear
1:35 AM 36.5 °F 33.9 °F 12.2 °F 37% 30.25 in 10.0 mi ESE 3.5 mph - N/A   Clear
1:55 AM 36.7 °F 32.9 °F 12.6 °F 37% 30.25 in 10.0 mi SE 4.6 mph - N/A   Clear
2:15 AM 36.0 °F 32.1 °F 13.5 °F 40% 30.24 in 10.0 mi SSE 4.6 mph - N/A   Clear
2:35 AM 34.3 °F 30.2 °F 14.7 °F 45% 30.24 in 10.0 mi SSE 4.6 mph - N/A   Clear
2:55 AM 34.7 °F - 15.4 °F 45% 30.23 in 10.0 mi Calm Calm - N/A   Clear
3:15 AM 36.0 °F 33.3 °F 14.9 °F 42% 30.23 in 10.0 mi SSE 3.5 mph - N/A   Clear
3:35 AM 35.2 °F 32.4 °F 16.2 °F 46% 30.22 in 10.0 mi SSE 3.5 mph - N/A   Clear
3:55 AM 35.6 °F 31.7 °F 16.2 °F 45% 30.22 in 10.0 mi SSE 4.6 mph - N/A   Clear
4:15 AM 34.7 °F 30.6 °F 17.1 °F 49% 30.22 in 10.0 mi SSE 4.6 mph - N/A   Clear
4:35 AM 36.0 °F 33.3 °F 16.2 °F 45% 30.21 in 10.0 mi SSE 3.5 mph - N/A   Clear
4:55 AM 36.5 °F 33.9 °F 16.3 °F 44% 30.21 in 10.0 mi SSE 3.5 mph - N/A   Clear
5:15 AM 36.5 °F 33.9 °F 16.3 °F 44% 30.20 in 10.0 mi SSE 3.5 mph - N/A   Clear
5:35 AM 36.5 °F 33.9 °F 16.5 °F 44% 30.20 in 10.0 mi SSE 3.5 mph - N/A   Clear
5:55 AM 36.5 °F 32.7 °F 17.2 °F 46% 30.20 in 10.0 mi SSE 4.6 mph - N/A   Clear
6:15 AM 35.6 °F 30.7 °F 20.3 °F 54% 30.20 in 10.0 mi SSE 5.8 mph - N/A   Clear
6:35 AM 35.2 °F 29.5 °F 21.6 °F 58% 30.20 in 10.0 mi SSE 6.9 mph - N/A   Clear
6:55 AM 35.6 °F 32.8 °F 20.8 °F 55% 30.20 in 10.0 mi South 3.5 mph - N/A   Clear
7:15 AM 35.8 °F - 20.5 °F 54% 30.21 in 10.0 mi Calm Calm - N/A   Clear
7:35 AM 36.1 °F - 20.3 °F 53% 30.20 in 10.0 mi Calm Calm - N/A   Clear
7:55 AM 37.2 °F - 22.3 °F 55% 30.21 in 10.0 mi Calm Calm - N/A   Clear
8:15 AM 41.0 °F 39.0 °F 21.6 °F 46% 30.20 in 10.0 mi South 3.5 mph - N/A   Clear
8:35 AM 42.1 °F - 22.8 °F 46% 30.20 in 10.0 mi Calm Calm - N/A   Clear
8:55 AM 45.1 °F 43.7 °F 20.7 °F 38% 30.19 in 10.0 mi South 3.5 mph - N/A   Clear
9:15 AM 47.7 °F - 20.8 °F 35% 30.18 in 10.0 mi SW 3.5 mph - N/A   Clear
9:35 AM 49.3 °F - 18.7 °F 30% 30.17 in 10.0 mi WSW 3.5 mph - N/A   Clear
9:55 AM 51.3 °F - 17.4 °F 26% 30.17 in 10.0 mi WSW 8.1 mph - N/A   Clear
10:15 AM 52.7 °F - 16.9 °F 24% 30.17 in 10.0 mi SW 4.6 mph - N/A   Clear
10:35 AM 54.0 °F - 14.2 °F 21% 30.16 in 10.0 mi WSW 4.6 mph - N/A   Clear
10:55 AM 54.7 °F - 13.3 °F 19% 30.15 in 10.0 mi West 8.1 mph - N/A   Clear
11:35 AM 56.1 °F - 11.5 °F 17% 30.15 in 10.0 mi WSW 8.1 mph - N/A   Clear
11:55 AM 58.1 °F - 11.1 °F 16% 30.14 in 10.0 mi SW 3.5 mph - N/A   Clear
12:15 PM 58.5 °F - 10.6 °F 15% 30.13 in 10.0 mi Calm Calm - N/A   Clear
12:35 PM 58.3 °F - 10.8 °F 15% 30.13 in 10.0 mi North 3.5 mph - N/A   Clear
12:55 PM 59.0 °F - 9.1 °F 14% 30.12 in 10.0 mi ESE 3.5 mph - N/A   Clear
1:35 PM 61.0 °F - 8.8 °F 13% 30.10 in 10.0 mi Calm Calm - N/A   Clear
1:38 PM 62.6 °F - 8.6 °F 12% 30.10 in 10.0 mi WNW 3.5 mph - N/A   Clear
1:55 PM 62.8 °F - 6.3 °F 11% 30.09 in 10.0 mi Calm Calm - N/A   Clear
2:15 PM 63.1 °F - 7.5 °F 11% 30.08 in 10.0 mi West 3.5 mph - N/A   Clear
2:35 PM 64.0 °F - 6.4 °F 10% 30.07 in 10.0 mi NNW 5.8 mph - N/A   Clear
2:55 PM 63.9 °F - 5.0 °F 10% 30.07 in 10.0 mi WNW 9.2 mph - N/A   Clear
3:15 PM 65.1 °F - 2.3 °F 8% 30.06 in 10.0 mi SSW 4.6 mph - N/A   Clear
3:35 PM 65.5 °F - 1.8 °F 8% 30.04 in 10.0 mi Calm Calm - N/A   Clear
3:55 PM 66.0 °F - 2.5 °F 8% 30.04 in 10.0 mi WNW 8.1 mph - N/A   Clear
4:15 PM 65.3 °F - 2.8 °F 8% 30.03 in 10.0 mi WNW 3.5 mph - N/A   Clear
4:35 PM 66.6 °F - 1.4 °F 8% 30.03 in 10.0 mi West 10.4 mph - N/A   Clear
4:55 PM 66.6 °F - 1.2 °F 7% 30.03 in 10.0 mi SW 4.6 mph 9.2 mph N/A   Clear
5:15 PM 66.0 °F - 1.0 °F 8% 30.03 in 10.0 mi NW 6.9 mph - N/A   Clear
5:35 PM 66.2 °F - 1.8 °F 8% 30.03 in 10.0 mi NW 8.1 mph - N/A   Scattered Clouds
5:55 PM 66.2 °F - 3.7 °F 8% 30.03 in 10.0 mi West 6.9 mph - N/A   Clear
6:15 PM 65.8 °F - 6.6 °F 10% 30.03 in 10.0 mi West 6.9 mph - N/A   Scattered Clouds
6:35 PM 64.4 °F - 7.0 °F 10% 30.03 in 10.0 mi West 4.6 mph - N/A   Mostly Cloudy
6:55 PM 64.4 °F - 8.8 °F 11% 30.02 in 10.0 mi West 5.8 mph - N/A   Scattered Clouds
7:15 PM 62.4 °F - 11.5 °F 14% 30.02 in 10.0 mi West 3.5 mph - N/A   Clear
7:35 PM 62.1 °F - 11.5 °F 14% 30.01 in 10.0 mi WNW 3.5 mph - N/A   Clear
7:55 PM 60.4 °F - 13.8 °F 16% 30.01 in 10.0 mi West 3.5 mph - N/A   Clear
8:15 PM 58.6 °F - 13.6 °F 17% 30.02 in 10.0 mi Calm Calm - N/A   Clear
8:35 PM 58.1 °F - 13.8 °F 18% 30.02 in 10.0 mi West 3.5 mph - N/A   Clear
8:55 PM 57.7 °F - 13.8 °F 18% 30.03 in 10.0 mi West 3.5 mph - N/A   Clear
9:15 PM 54.9 °F - 25.0 °F 32% 30.04 in 10.0 mi NNW 10.4 mph - N/A   Clear
9:35 PM 52.9 °F - 31.6 °F 44% 30.05 in 10.0 mi NNW 11.5 mph - N/A   Clear
9:55 PM 52.0 °F - 34.7 °F 52% 30.05 in 10.0 mi NNW 9.2 mph - N/A   Clear
10:15 PM 50.5 °F - 35.1 °F 55% 30.06 in 10.0 mi NNW 8.1 mph - N/A   Clear
10:35 PM 51.1 °F - 35.6 °F 55% 30.06 in 10.0 mi NNW 9.2 mph - N/A   Clear
10:55 PM 49.5 °F - 35.2 °F 58% 30.06 in 10.0 mi NNW 8.1 mph - N/A   Clear
11:15 PM 49.3 °F - 34.7 °F 57% 30.06 in 10.0 mi NNW 6.9 mph - N/A   Clear
11:35 PM 49.8 °F - 34.2 °F 55% 30.07 in 10.0 mi NNW 10.4 mph - N/A   Clear
11:55 PM 48.2 °F - 33.8 °F 58% 30.08 in 10.0 mi NNW 8.1 mph - N/A   Clear